Weather History for KCRP - December, 2012

Change the Weather History Date:

Monday, December 3, 2012

  Actual Average Record
Temperature  
Mean Temperature 74 °F 61 °F  
Max Temperature 87 °F 71 °F 88 °F (1978)
Min Temperature 61 °F 51 °F 33 °F (1929)
Degree Days  
Heating Degree Days 0 6  
Month to date heating degree days 0 18  
Since 1 July heating degree days 39 119  
Cooling Degree Days 9 2  
Month to date cooling degree days 33 6  
Year to date cooling degree days 4404 3481  
Growing Degree Days 24 (Base 50)    
Moisture  
Dew Point 63 °F    
Average Humidity 70    
Maximum Humidity 100    
Minimum Humidity 40    
Precipitation  
Precipitation 0.00 in 0.05 in 2.32 in (1943)
Month to date precipitation 0.00 0.15  
Year to date precipitation 18.79 30.08  
Snow  
Snow 0.00 in - - ()
Month to date snowfall 0.0  
Since 1 July snowfall 0.0  
Snow Depth 0.00 in    
Sea Level Pressure  
Sea Level Pressure 30.02 in    
Wind  
Wind Speed 13 mph (SSE)    
Max Wind Speed 25 mph    
Max Gust Speed 33 mph    
Visibility 7 miles    
Events Fog    
T = Trace of Precipitation, MM = Missing Value Source: NWS Daily Summary

Daily Weather History Graph

Daily Weather History Graph

Search for Another Location

Airport or City:

Trip Planner

Search our weather history database for the weather conditions in past years. The results will help you decide how hot, cold, wet, or windy it might be!

Date:

Astronomy

Dec. 03, 2012 Rise Set
Actual Time 7:05 AM CST 5:34 PM CST
Civil Twilight 6:40 AM CST 6:00 PM CST
Nautical Twilight 6:11 AM CST 6:29 PM CST
Astronomical Twilight 5:42 AM CST 6:57 PM CST
Moon 10:08 PM CST 10:41 AM CST
Length of Visible Light 11h 20m
Length of Day
10h 29m
Waning Gibbous, 78% of the Moon is Illuminated
Dec 3
Waning Gibbous
Dec 6
Last Quarter
Dec 13
New
Dec 19
First Quarter
Dec 28
Full

Hourly Weather History & Observations

Time (CST) Temp. Heat Index Dew Point Humidity Pressure Visibility Wind Dir Wind Speed Gust Speed Precip Events Conditions
12:51 AM 66.9 °F - 64.0 °F 90% 30.05 in 10.0 mi SSE 6.9 mph - N/A   Partly Cloudy
1:51 AM 66.9 °F - 64.0 °F 90% 30.04 in 10.0 mi SSE 8.1 mph - N/A Fog Patches of Fog
2:06 AM 66.2 °F - 64.4 °F 94% 30.04 in 10.0 mi SSE 5.8 mph - N/A Fog Patches of Fog
2:43 AM 64.4 °F - 62.6 °F 94% 30.04 in 1.2 mi SSE 4.6 mph - N/A   Partly Cloudy
2:49 AM 64.4 °F - 62.6 °F 94% 30.04 in 0.8 mi South 3.5 mph - N/A   Mostly Cloudy
2:51 AM 64.0 °F - 62.1 °F 93% 30.04 in 0.8 mi SSE 3.5 mph - N/A   Mostly Cloudy
2:59 AM 64.4 °F - 62.6 °F 94% 30.04 in 0.2 mi South 4.6 mph - N/A Fog Fog
3:06 AM 62.6 °F - 60.8 °F 94% 30.04 in 0.2 mi South 4.6 mph - N/A Fog Fog
3:51 AM 64.0 °F - 61.0 °F 90% 30.03 in 0.2 mi SSE 4.6 mph - N/A Fog Fog
4:51 AM 63.0 °F - 61.0 °F 93% 30.03 in 0.2 mi SE 4.6 mph - N/A Fog Fog
5:48 AM 62.6 °F - 62.6 °F 100% 30.03 in 0.5 mi SSE 3.5 mph - N/A Fog Fog
5:51 AM 63.0 °F - 62.1 °F 97% 30.03 in 0.5 mi SSE 3.5 mph - N/A Fog Fog
6:20 AM 62.6 °F - 60.8 °F 94% 30.04 in 1.5 mi SSE 6.9 mph - N/A   Partly Cloudy
6:33 AM 60.8 °F - 59.0 °F 94% 30.04 in 0.8 mi SE 6.9 mph - N/A   Partly Cloudy
6:51 AM 63.0 °F - 61.0 °F 93% 30.05 in 0.5 mi SE 6.9 mph - N/A Fog Fog
7:40 AM 64.4 °F - 62.6 °F 94% 30.06 in 7.0 mi Variable 6.9 mph - N/A Fog Patches of Fog
7:51 AM 66.0 °F - 64.0 °F 93% 30.06 in 9.0 mi ESE 6.9 mph - N/A Fog Patches of Fog
8:51 AM 73.9 °F - 69.1 °F 85% 30.06 in 10.0 mi SSE 9.2 mph - N/A   Partly Cloudy
9:51 AM 79.0 °F - 66.9 °F 66% 30.06 in 10.0 mi South 17.3 mph - N/A   Scattered Clouds
10:51 AM 82.0 °F 83.8 °F 64.9 °F 56% 30.05 in 10.0 mi South 19.6 mph 25.3 mph N/A   Scattered Clouds
11:51 AM 84.0 °F 84.9 °F 63.0 °F 49% 30.03 in 10.0 mi South 20.7 mph 26.5 mph N/A   Scattered Clouds
12:51 PM 86.0 °F 85.7 °F 60.1 °F 41% 29.99 in 10.0 mi South 18.4 mph - N/A   Scattered Clouds
1:51 PM 86.0 °F 85.4 °F 59.0 °F 40% 29.97 in 10.0 mi SSE 20.7 mph - N/A   Partly Cloudy
2:51 PM 84.9 °F 85.9 °F 63.0 °F 48% 29.96 in 10.0 mi SSE 23.0 mph - N/A   Partly Cloudy
3:51 PM 82.9 °F 84.0 °F 63.0 °F 51% 29.96 in 10.0 mi SSE 24.2 mph 29.9 mph N/A   Partly Cloudy
4:51 PM 80.1 °F 81.2 °F 62.1 °F 54% 29.96 in 10.0 mi SSE 20.7 mph - N/A   Clear
5:51 PM 77.0 °F - 64.0 °F 64% 29.97 in 10.0 mi SSE 15.0 mph - N/A   Clear
6:51 PM 75.0 °F - 64.9 °F 71% 29.99 in 10.0 mi SE 15.0 mph - N/A   Clear
7:51 PM 73.9 °F - 64.9 °F 73% 30.01 in 10.0 mi SSE 15.0 mph - N/A   Clear
8:51 PM 73.0 °F - 66.0 °F 79% 30.02 in 10.0 mi SSE 12.7 mph - N/A   Clear
9:51 PM 72.0 °F - 66.0 °F 81% 30.03 in 10.0 mi SSE 10.4 mph - N/A   Clear
10:51 PM 71.1 °F - 66.0 °F 84% 30.02 in 10.0 mi SE 8.1 mph - N/A   Clear
11:51 PM 71.1 °F - 66.9 °F 87% 30.02 in 10.0 mi SE 9.2 mph - N/A   Clear